Time,TemperatureF,DewpointF,PressureIn,WindDirection,WindDirectionDegrees,WindSpeedMPH,WindSpeedGustMPH,Humidity,HourlyPrecipIn,Conditions,Clouds,dailyrainin,SoftwareType,DateUTC
2013-10-29 00:04:00,50.0,34.0,30.27,North,359,2.0,3.0,55,0.00,,,0.00,,2013-10-29 04:04:00,
2013-10-29 00:14:00,50.0,34.0,30.27,North,359,2.0,3.0,55,0.00,,,0.00,,2013-10-29 04:14:00,
2013-10-29 00:24:00,50.0,34.0,30.27,North,359,2.0,3.0,55,0.00,,,0.00,,2013-10-29 04:24:00,
2013-10-29 00:44:00,50.0,34.0,30.29,North,1,1.0,3.0,54,0.00,,,0.00,,2013-10-29 04:44:00,
2013-10-29 00:58:00,50.0,34.0,30.29,North,1,1.0,3.0,54,0.00,,,0.00,,2013-10-29 04:58:00,
2013-10-29 01:19:00,49.0,33.0,30.29,NE,49,3.0,3.0,54,0.00,,,0.00,,2013-10-29 05:19:00,
2013-10-29 01:45:00,48.0,30.0,30.30,NNE,33,3.0,7.0,50,0.00,,,0.00,,2013-10-29 05:45:00,
2013-10-29 01:52:00,48.0,31.0,30.30,North,3,0.0,4.0,51,0.00,,,0.00,,2013-10-29 05:52:00,
2013-10-29 02:16:00,48.0,31.0,30.30,NE,36,0.0,3.0,52,0.00,,,0.00,,2013-10-29 06:16:00,
2013-10-29 02:21:00,46.0,31.0,30.30,NNE,22,1.0,2.0,55,0.00,,,0.00,,2013-10-29 06:21:00,
2013-10-29 02:26:00,47.0,32.0,30.30,NNE,18,0.0,3.0,55,0.00,,,0.00,,2013-10-29 06:26:00,
2013-10-29 02:43:00,46.0,31.0,30.30,NNE,13,0.0,2.0,55,0.00,,,0.00,,2013-10-29 06:43:00,
2013-10-29 02:53:00,46.0,31.0,30.30,NNE,22,1.0,2.0,55,0.00,,,0.00,,2013-10-29 06:53:00,
2013-10-29 03:01:00,46.0,31.0,30.30,NNE,22,1.0,2.0,55,0.00,,,0.00,,2013-10-29 07:01:00,
2013-10-29 03:11:00,46.0,31.0,30.30,NNE,22,1.0,2.0,55,0.00,,,0.00,,2013-10-29 07:11:00,
2013-10-29 03:55:00,47.0,30.0,30.31,NNE,16,3.0,3.0,52,0.00,,,0.00,,2013-10-29 07:55:00,
2013-10-29 04:13:00,47.0,30.0,30.30,NNE,13,0.0,0.0,52,0.00,,,0.00,,2013-10-29 08:13:00,
2013-10-29 04:24:00,47.0,30.0,30.31,North,10,3.0,3.0,52,0.00,,,0.00,,2013-10-29 08:24:00,
2013-10-29 04:32:00,47.0,30.0,30.31,North,10,3.0,3.0,52,0.00,,,0.00,,2013-10-29 08:32:00,
2013-10-29 04:42:00,47.0,30.0,30.31,North,10,3.0,3.0,52,0.00,,,0.00,,2013-10-29 08:42:00,
2013-10-29 04:52:00,46.0,30.0,30.32,North,8,3.0,3.0,53,0.00,,,0.00,,2013-10-29 08:52:00,
2013-10-29 05:22:00,46.0,30.0,30.32,North,5,3.0,4.0,54,0.00,,,0.00,,2013-10-29 09:22:00,
2013-10-29 05:33:00,46.0,30.0,30.32,North,5,3.0,4.0,54,0.00,,,0.00,,2013-10-29 09:33:00,
2013-10-29 05:53:00,46.0,31.0,30.34,North,1,1.0,3.0,56,0.00,,,0.00,,2013-10-29 09:53:00,
2013-10-29 06:03:00,46.0,31.0,30.34,North,1,1.0,3.0,56,0.00,,,0.00,,2013-10-29 10:03:00,
2013-10-29 06:13:00,46.0,31.0,30.34,North,1,1.0,3.0,56,0.00,,,0.00,,2013-10-29 10:13:00,
2013-10-29 06:23:00,45.0,31.0,30.35,NNE,18,3.0,3.0,57,0.00,,,0.00,,2013-10-29 10:23:00,
2013-10-29 06:53:00,44.0,31.0,30.35,NNE,12,0.0,1.0,59,0.00,,,0.00,,2013-10-29 10:53:00,
2013-10-29 07:22:00,44.0,31.0,30.35,North,7,2.0,6.0,60,0.00,,,0.00,,2013-10-29 11:22:00,
2013-10-29 07:42:00,44.0,31.0,30.35,North,6,1.0,9.0,61,0.00,,,0.00,,2013-10-29 11:42:00,
2013-10-29 07:52:00,43.0,31.0,30.35,North,6,3.0,5.0,62,0.00,,,0.00,,2013-10-29 11:52:00,
2013-10-29 08:12:00,43.0,30.0,30.36,NNE,18,0.0,3.0,61,0.00,,,0.00,,2013-10-29 12:12:00,
2013-10-29 08:21:00,43.0,30.0,30.36,NNE,18,0.0,3.0,61,0.00,,,0.00,,2013-10-29 12:21:00,
2013-10-29 08:52:00,44.0,30.0,30.36,ENE,60,4.0,4.0,58,0.00,,,0.00,,2013-10-29 12:52:00,
2013-10-29 09:11:00,45.0,30.0,30.37,NE,44,4.0,6.0,55,0.00,,,0.00,,2013-10-29 13:11:00,
2013-10-29 09:22:00,45.0,29.0,30.37,NNE,30,3.0,10.0,53,0.00,,,0.00,,2013-10-29 13:22:00,
2013-10-29 09:42:00,46.0,29.0,30.38,ENE,62,2.0,7.0,51,0.00,,,0.00,,2013-10-29 13:42:00,
2013-10-29 09:52:00,46.0,29.0,30.38,North,2,3.0,5.0,51,0.00,,,0.00,,2013-10-29 13:52:00,
2013-10-29 10:02:00,46.0,29.0,30.38,North,2,3.0,5.0,51,0.00,,,0.00,,2013-10-29 14:02:00,
2013-10-29 10:12:00,46.0,29.0,30.38,North,2,3.0,5.0,51,0.00,,,0.00,,2013-10-29 14:12:00,
2013-10-29 10:22:00,47.0,29.0,30.38,NE,53,0.0,8.0,49,0.00,,,0.00,,2013-10-29 14:22:00,
2013-10-29 10:32:00,47.0,29.0,30.38,NE,53,0.0,8.0,49,0.00,,,0.00,,2013-10-29 14:32:00,
2013-10-29 10:42:00,47.0,29.0,30.38,NE,53,0.0,8.0,49,0.00,,,0.00,,2013-10-29 14:42:00,
2013-10-29 10:52:00,48.0,29.0,30.38,NNE,18,1.0,5.0,47,0.00,,,0.00,,2013-10-29 14:52:00,
2013-10-29 11:03:00,50.0,29.0,30.38,NE,56,3.0,6.0,44,0.00,,,0.00,,2013-10-29 15:03:00,
2013-10-29 11:22:00,50.0,29.0,30.38,NE,56,3.0,6.0,44,0.00,,,0.00,,2013-10-29 15:22:00,
2013-10-29 11:33:00,50.0,29.0,30.38,NE,56,3.0,6.0,44,0.00,,,0.00,,2013-10-29 15:33:00,
2013-10-29 11:44:00,50.0,29.0,30.38,NE,56,3.0,6.0,44,0.00,,,0.00,,2013-10-29 15:44:00,
2013-10-29 11:54:00,50.0,29.0,30.38,NE,56,3.0,6.0,44,0.00,,,0.00,,2013-10-29 15:54:00,
2013-10-29 12:23:00,54.0,31.0,30.37,ENE,59,4.0,5.0,41,0.00,,,0.00,,2013-10-29 16:23:00,
2013-10-29 12:43:00,54.0,30.0,30.37,ENE,61,0.0,3.0,40,0.00,,,0.00,,2013-10-29 16:43:00,
2013-10-29 12:53:00,56.0,32.0,30.37,North,349,0.0,3.0,40,0.00,,,0.00,,2013-10-29 16:53:00,
2013-10-29 13:02:00,56.0,32.0,30.37,North,349,0.0,3.0,40,0.00,,,0.00,,2013-10-29 17:02:00,
2013-10-29 13:22:00,57.0,32.0,30.36,North,353,3.0,6.0,38,0.00,,,0.00,,2013-10-29 17:22:00,
2013-10-29 13:42:00,57.0,32.0,30.35,NNW,329,2.0,4.0,38,0.00,,,0.00,,2013-10-29 17:42:00,
2013-10-29 13:52:00,57.0,31.0,30.34,North,4,0.0,4.0,37,0.00,,,0.00,,2013-10-29 17:52:00,
2013-10-29 14:22:00,56.0,31.0,30.33,NE,49,0.0,3.0,38,0.00,,,0.00,,2013-10-29 18:22:00,
2013-10-29 14:32:00,56.0,31.0,30.33,NE,49,0.0,3.0,38,0.00,,,0.00,,2013-10-29 18:32:00,
2013-10-29 14:42:00,56.0,31.0,30.33,NE,49,0.0,3.0,38,0.00,,,0.00,,2013-10-29 18:42:00,
2013-10-29 14:52:00,55.0,31.0,30.33,ENE,77,0.0,3.0,39,0.00,,,0.00,,2013-10-29 18:52:00,
2013-10-29 15:11:00,55.0,31.0,30.33,ENE,76,2.0,6.0,39,0.00,,,0.00,,2013-10-29 19:11:00,
2013-10-29 15:22:00,55.0,31.0,30.32,ENE,63,1.0,3.0,39,0.00,,,0.00,,2013-10-29 19:22:00,
2013-10-29 15:42:00,55.0,31.0,30.32,NE,45,1.0,5.0,39,0.00,,,0.00,,2013-10-29 19:42:00,
2013-10-29 15:53:00,55.0,31.0,30.33,NE,44,2.0,3.0,39,0.00,,,0.00,,2013-10-29 19:53:00,
2013-10-29 16:02:00,55.0,31.0,30.33,NE,44,2.0,3.0,39,0.00,,,0.00,,2013-10-29 20:02:00,
2013-10-29 16:12:00,55.0,31.0,30.33,NE,44,2.0,3.0,39,0.00,,,0.00,,2013-10-29 20:12:00,
2013-10-29 16:22:00,55.0,31.0,30.33,NE,56,2.0,5.0,39,0.00,,,0.00,,2013-10-29 20:22:00,
2013-10-29 16:43:00,55.0,31.0,30.33,ENE,75,2.0,5.0,40,0.00,,,0.00,,2013-10-29 20:43:00,
2013-10-29 16:52:00,55.0,31.0,30.34,ENE,59,0.0,1.0,40,0.00,,,0.00,,2013-10-29 20:52:00,
2013-10-29 17:22:00,54.0,31.0,30.34,ENE,75,0.0,3.0,42,0.00,,,0.00,,2013-10-29 21:22:00,
2013-10-29 17:34:00,54.0,31.0,30.34,ENE,75,0.0,3.0,42,0.00,,,0.00,,2013-10-29 21:34:00,
2013-10-29 17:54:00,53.0,31.0,30.34,ENE,68,1.0,3.0,43,0.00,,,0.00,,2013-10-29 21:54:00,
2013-10-29 18:14:00,53.0,32.0,30.33,ENE,63,3.0,3.0,44,0.00,,,0.00,,2013-10-29 22:14:00,
2013-10-29 18:23:00,53.0,33.0,30.33,ENE,64,0.0,1.0,46,0.00,,,0.00,,2013-10-29 22:23:00,
2013-10-29 18:43:00,52.0,32.0,30.33,NE,52,1.0,3.0,47,0.00,,,0.00,,2013-10-29 22:43:00,
2013-10-29 18:53:00,51.0,32.0,30.33,NE,46,0.0,3.0,48,0.00,,,0.00,,2013-10-29 22:53:00,
2013-10-29 19:13:00,50.0,31.0,30.34,NNE,25,2.0,3.0,47,0.00,,,0.00,,2013-10-29 23:13:00,
2013-10-29 19:22:00,50.0,31.0,30.34,NNE,30,0.0,3.0,47,0.00,,,0.00,,2013-10-29 23:22:00,
2013-10-29 19:53:00,50.0,31.0,30.35,NE,38,0.0,3.0,48,0.00,,,0.00,,2013-10-29 23:53:00,
2013-10-29 20:22:00,49.0,31.0,30.36,NE,37,0.0,2.0,49,0.00,,,0.00,,2013-10-30 00:22:00,
2013-10-29 20:42:00,48.0,31.0,30.36,NE,36,0.0,2.0,51,0.00,,,0.00,,2013-10-30 00:42:00,
2013-10-29 20:52:00,48.0,31.0,30.35,NE,40,1.0,3.0,51,0.00,,,0.00,,2013-10-30 00:52:00,
2013-10-29 21:12:00,48.0,31.0,30.35,NE,37,0.0,0.0,52,0.00,,,0.00,,2013-10-30 01:12:00,
2013-10-29 21:22:00,47.0,31.0,30.35,NE,37,0.0,0.0,54,0.00,,,0.00,,2013-10-30 01:22:00,
2013-10-29 21:32:00,47.0,31.0,30.35,NE,37,0.0,0.0,54,0.00,,,0.00,,2013-10-30 01:32:00,
2013-10-29 21:52:00,46.0,31.0,30.35,NE,37,0.0,0.0,55,0.00,,,0.00,,2013-10-30 01:52:00,
2013-10-29 22:22:00,46.0,31.0,30.35,NE,39,0.0,0.0,55,0.00,,,0.00,,2013-10-30 02:22:00,
2013-10-29 22:42:00,46.0,32.0,30.35,NE,39,0.0,2.0,57,0.00,,,0.00,,2013-10-30 02:42:00,
2013-10-29 22:52:00,45.0,32.0,30.35,NE,37,0.0,1.0,60,0.00,,,0.00,,2013-10-30 02:52:00,
2013-10-29 23:22:00,45.0,32.0,30.35,NNE,14,0.0,1.0,61,0.00,,,0.00,,2013-10-30 03:22:00,
2013-10-29 23:34:00,45.0,32.0,30.35,NNE,14,0.0,1.0,61,0.00,,,0.00,,2013-10-30 03:34:00,
2013-10-29 23:44:00,45.0,32.0,30.35,NNE,14,0.0,1.0,61,0.00,,,0.00,,2013-10-30 03:44:00,
2013-10-29 23:54:00,44.0,31.0,30.33,NNE,15,0.0,0.0,59,0.00,,,0.00,,2013-10-30 03:54:00,